User: anonymous   Login
Location: Nag� el Ma?a??a
(24.0667°N, 32.8833°E)
Time: 18:20:03
(UTC+00:00)
Language:

NOSS 3-4 (A) - Orbit

View from above orbital plane
View from above orbital plane
View from above satellite
View from above satellite

Ground track
Ground track

The orbit data is extracted from the following two-line orbital elements,

1 31701U 07027A   21332.71108245 0.00000000  00000-0  00000-0 0    00
2 31701  63.3939 255.7182 0327270  20.0731 339.9269 13.40823499    05
Epoch (UTC): 28 November 2021 17:03:57
Eccentricity: 0.0327270
inclination: 63.3939°
perigee height: 861 km
apogee height: 1351 km
right ascension of ascending node: 255.7182°
argument of perigee: 20.0731°
revolutions per day: 13.40823499
mean anomaly at epoch: 339.9269°
orbit number at epoch: 0

The dashed part of the orbit path shows where the satellite is in the earth's shadow,  

DLR